Home > Weather > Santa Clara > Past weeks

Flag for Cuba Past Weather in Santa Clara, Cuba — Yesterday and Last 2 Weeks

Now
72 °F

Mild.


Feels Like: 67 °F
Forecast: 71 / 89 °F
Wind: 3 mph from Northeast

Location: Cienfuegos - Las Villas

Current Time: May 31, 2016 at 6:22:09 AM

Latest Report: May 31, 2016 at 5:58 AM


Visibility: N/A

Pressure: 29.92 "Hg

Humidity: 94%

Dew Point: 70 °F

Location of Santa ClaraLocation

Past Weather in Santa Clara — Graph

°F

Santa Clara Temperature Yesterday

Maximum temperature yesterday: 93 °F (at 12:58 PM)
Minimum temperature yesterday: 70 °F (at 6:58 AM)
Average temperature yesterday: 78 °F

High & Low Weather Summary for the Past Weeks

 TemperatureHumidityPressure
High93 °F (May 16, 1:58 PM)100% (May 24, 1:51 PM)30.09 "Hg (May 24, 1:51 PM)
Low43 °F (May 24, 1:51 PM)44% (May 27, 1:51 PM)29.86 "Hg (May 22, 5:58 PM)
Average81 °F77%30.00 "Hg
* Reported May 16 4:58 AM — May 31 4:58 AM, Santa Clara, Weather by CustomWeather, © 2016

Note: Actual official high and low records may vary slightly from our data, if they occured in-between our weather recording intervals... More about our weather records

Advertising

Santa Clara Weather History for the Previous 24 Hours

Scroll right to see more
 ConditionsComfort  
Time TempWeatherWind HumidityBarometerVisibility
4:58 AM
Tue, May 31
72 °FMild.3 mph94%29.89 "HgN/A
3:58 AM72 °FMild.5 mph94%29.89 "HgN/A
2:58 AM72 °FMild.3 mph100%29.92 "HgN/A
1:58 AM73 °FMild.2 mph94%29.92 "HgN/A
12:58 AM73 °FMild.5 mph94%29.95 "HgN/A
11:58 PM
Mon, May 30
73 °FMild.6 mph94%29.95 "HgN/A
10:58 PM75 °FMild.6 mph89%29.98 "HgN/A
9:58 PM73 °FMild.5 mph94%29.98 "HgN/A
8:58 PM73 °FMild.8 mph94%29.95 "HgN/A
7:58 PM75 °FMild.5 mph89%29.95 "HgN/A
6:58 PM75 °FMild.6 mph89%29.95 "HgN/A
5:58 PM73 °FMild.6 mph89%29.92 "HgN/A
4:58 PM72 °FMild.10 mph94%29.92 "HgN/A
3:58 PM90 °FHot.12 mph55%29.89 "HgN/A
2:58 PM90 °FHot.12 mph55%29.92 "HgN/A
1:58 PM90 °FHot.7 mph52%29.95 "HgN/A
12:58 PM93 °FExtremely hot.6 mph47%29.95 "HgN/A
11:58 AM90 °FHot.6 mph52%29.98 "HgN/A
10:58 AM88 °FWarm.7 mph55%29.98 "HgN/A
9:58 AM86 °FWarm.5 mph62%29.98 "HgN/A
8:58 AM82 °FWarm.3 mph74%29.98 "HgN/A
7:58 AM75 °FMild.5 mph89%29.98 "HgN/A
6:58 AM70 °FMild.3 mph100%29.95 "HgN/A
Weather by CustomWeather, © 2016

See weather overviewHow to use our weather pages